KK4OHF Weather Reports


time (UTC)temp
C
wind
direction
speed
KPH
gust
KPH
rain 1hr
cm
rain 24hr
cm
rain mn
cm
humidity
%
barometer
mb
20260902180007 34 229 1.6 4.8 0.00 0.00 0.00 47 1018.8
20260902175505 33 24 1.6 4.8 0.00 0.00 0.00 49 1018.8
20260902175005 33 51 1.6 4.8 0.00 0.00 0.00 51 1018.8
20260902174506 34 14 1.6 3.2 0.00 0.00 0.00 50 1018.8
20260902174005 33 348 1.6 3.2 0.00 0.00 0.00 54 1018.9
20260902172505 33 289 1.6 4.8 0.00 0.00 0.00 52 1019.0
20260902172005 34 38 1.6 4.8 0.00 0.00 0.00 52 1019.2
20260902171505 34 336 3.2 4.8 0.00 0.00 0.00 52 1019.2
20260902171005 34 54 1.6 4.8 0.00 0.00 0.00 53 1019.3
20260902170505 33 14 4.8 9.7 0.00 0.00 0.00 50 1019.3
20260902170005 34 59 0.0 4.8 0.00 0.00 0.00 52 1019.5
20260902165505 34 4 3.2 4.8 0.00 0.00 0.00 55 1019.5
20260902164505 33 302 3.2 4.8 0.00 0.00 0.00 51 1019.5
20260902164005 34 353 1.6 8.0 0.00 0.00 0.00 53 1019.5
20260902163505 34 290 1.6 8.0 0.00 0.00 0.00 54 1019.5
20260902163005 33 29 1.6 4.8 0.00 0.00 0.00 56 1020.0
20260902162505 33 349 1.6 4.8 0.00 0.00 0.00 56 1020.0
20260902162005 33 286 3.2 4.8 0.00 0.00 0.00 53 1020.0
20260902161506 33 234 1.6 4.8 0.00 0.00 0.00 55 1020.0
20260902161005 33 310 3.2 8.0 0.00 0.00 0.00 54 1020.0
20260902160505 33 240 3.2 8.0 0.00 0.00 0.00 53 1020.0
20260902155504 33 280 1.6 4.8 0.00 0.00 0.00 56 1020.0
20260902154005 32 278 1.6 4.8 0.00 0.00 0.00 61 1020.0
20260902153006 32 287 3.2 8.0 0.00 0.00 0.00 59 1020.0
20260902152504 32 267 1.6 4.8 0.00 0.00 0.00 60 1020.0
20260902152005 31 260 1.6 8.0 0.00 0.00 0.00 59 1020.0
20260902151505 31 220 1.6 9.7 0.00 0.00 0.00 61 1020.0
20260902151006 31 272 3.2 11.3 0.00 0.00 0.00 61 1020.0
20260902150504 31 326 3.2 8.0 0.00 0.00 0.00 61 1020.0
20260902150005 31 4 1.6 4.8 0.00 0.00 0.00 64 1020.0
20260902145505 31 5 1.6 4.8 0.00 0.00 0.00 65 1020.0
20260902145006 30 333 1.6 9.7 0.00 0.00 0.00 66 1019.6
20260902144505 30 285 6.4 11.3 0.00 0.00 0.00 64 1019.6
20260902144005 30 276 4.8 11.3 0.00 0.00 0.00 65 1019.6
20260902143505 30 323 4.8 14.5 0.00 0.00 0.00 64 1019.6
20260902143005 31 280 3.2 14.5 0.00 0.00 0.00 66 1019.6
20260902142505 30 298 1.6 8.0 0.00 0.00 0.00 68 1019.6
20260902142005 30 242 3.2 4.8 0.00 0.00 0.00 68 1019.6
20260902141505 29 239 3.2 9.7 0.00 0.00 0.00 69 1019.6
20260902141005 30 258 3.2 8.0 0.00 0.00 0.00 70 1019.6
20260902140505 29 255 4.8 8.0 0.00 0.00 0.00 70 1019.6
20260902135504 28 232 3.2 4.8 0.00 0.00 0.00 76 1019.6
20260902135005 27 272 1.6 4.8 0.00 0.00 0.00 80 1019.6
20260902134005 25 273 1.6 4.8 0.00 0.00 0.00 88 1019.6
20260902133005 24 268 1.6 3.2 0.00 0.00 0.00 89 1019.6
20260902132505 23 268 1.6 4.8 0.00 0.00 0.00 89 1019.6
20260902132006 23 268 1.6 3.2 0.00 0.00 0.00 89 1019.6
20260902131504 23 268 1.6 3.2 0.00 0.00 0.00 89 1019.6
20260902131006 23 355 0.0 1.6 0.00 0.00 0.00 89 1019.6
20260902130505 23 355 0.0 1.6 0.00 0.00 0.00 89 1019.6
20260902130005 23 355 0.0 1.6 0.00 0.00 0.00 89 1019.6
20260902125505 23 355 0.0 1.6 0.00 0.00 0.00 89 1019.6
20260902125005 22 355 0.0 1.6 0.00 0.00 0.00 89 1019.6
20260902124506 22 355 0.0 1.6 0.00 0.00 0.00 89 1019.6
20260902124006 22 355 0.0 3.2 0.00 0.00 0.00 89 1019.6
20260902123505 22 355 1.6 3.2 0.00 0.00 0.00 89 1019.6
20260902123005 22 355 0.0 1.6 0.00 0.00 0.00 89 1019.6
20260902122506 21 355 0.0 1.6 0.00 0.00 0.00 89 1019.6
20260902122005 21 355 0.0 1.6 0.00 0.00 0.00 89 1019.3
20260902120505 21 355 0.0 1.6 0.00 0.00 0.00 89 1019.2
20260902120005 21 355 0.0 1.6 0.00 0.00 0.00 90 1019.1
20260902115506 21 355 0.0 1.6 0.00 0.00 0.00 90 1019.1
20260902115005 21 355 0.0 0.0 0.00 0.00 0.00 90 1019.1
20260902114505 21 355 0.0 1.6 0.00 0.00 0.00 90 1019.0
20260902114005 21 355 0.0 3.2 0.00 0.00 0.00 90 1019.0
20260902113505 21 355 0.0 1.6 0.00 0.00 0.00 90 1019.0
20260902113005 21 355 0.0 0.0 0.00 0.00 0.00 90 1019.0
20260902112505 21 355 0.0 0.0 0.00 0.00 0.00 89 1019.0
20260902112005 21 355 0.0 0.0 0.00 0.00 0.00 89 1018.9
20260902111505 21 355 0.0 1.6 0.00 0.00 0.00 89 1018.9
20260902111006 21 355 0.0 0.0 0.00 0.00 0.00 89 1018.9
20260902110506 21 355 0.0 0.0 0.00 0.00 0.00 89 1018.9
20260902110007 21 355 1.6 3.2 0.00 0.00 0.00 89 1018.5
20260902104506 21 355 0.0 1.6 0.00 0.00 0.00 89 1018.5
20260902104005 21 355 0.0 3.2 0.00 0.00 0.00 89 1018.5
20260902103505 21 355 1.6 3.2 0.00 0.00 0.00 89 1018.5
20260902102505 21 355 0.0 1.6 0.00 0.00 0.00 90 1018.5
20260902101505 21 355 0.0 3.2 0.00 0.00 0.00 90 1018.5
20260902101006 21 355 0.0 1.6 0.00 0.00 0.00 90 1018.4
20260902100504 21 355 0.0 0.0 0.00 0.00 0.00 90 1018.4
20260902100004 21 355 0.0 0.0 0.00 0.00 0.00 90 1018.4
20260902095505 21 355 0.0 0.0 0.00 0.00 0.00 90 1018.4
20260902095006 21 355 0.0 0.0 0.00 0.00 0.00 90 1018.4
20260902094504 21 355 0.0 0.0 0.00 0.00 0.00 90 1018.4
20260902094005 21 355 0.0 0.0 0.00 0.00 0.00 89 1018.4
20260902093505 21 355 0.0 0.0 0.00 0.00 0.00 89 1018.4
20260902093006 22 355 0.0 0.0 0.00 0.00 0.00 89 1017.8
20260902092005 22 355 0.0 0.0 0.00 0.00 0.00 89 1017.8
20260902091006 22 355 0.0 0.0 0.00 0.00 0.00 89 1017.8
20260902090504 22 355 0.0 0.0 0.00 0.00 0.00 89 1017.8
20260902090005 22 355 0.0 0.0 0.00 0.00 0.00 89 1017.8
20260902085505 22 355 0.0 0.0 0.00 0.00 0.00 89 1017.8
20260902084505 22 355 0.0 0.0 0.00 0.00 0.00 89 1017.8
20260902083505 22 355 0.0 0.0 0.00 0.00 0.00 89 1017.8
20260902083005 22 355 0.0 0.0 0.00 0.00 0.00 89 1017.8
20260902082504 22 355 0.0 0.0 0.00 0.00 0.00 89 1017.8
20260902082005 22 355 0.0 0.0 0.00 0.00 0.00 89 1017.9
20260902081504 22 355 0.0 1.6 0.00 0.00 0.00 89 1017.9
20260902081005 22 355 0.0 0.0 0.00 0.00 0.00 89 1017.8
20260902080504 22 355 0.0 1.6 0.00 0.00 0.00 89 1017.8
20260902080005 22 355 0.0 0.0 0.00 0.00 0.00 89 1017.7
20260902075505 22 355 0.0 0.0 0.00 0.00 0.00 89 1017.7
20260902075005 22 355 0.0 1.6 0.00 0.00 0.00 89 1017.7
20260902074505 22 355 0.0 1.6 0.00 0.00 0.00 89 1017.7
20260902074005 22 355 0.0 0.0 0.00 0.00 0.00 89 1017.6
20260902073505 22 355 0.0 0.0 0.00 0.00 0.00 89 1017.6
20260902073005 22 355 0.0 0.0 0.00 0.00 0.00 89 1017.8
20260902072505 22 355 0.0 0.0 0.00 0.00 0.00 89 1017.8
20260902072006 22 355 0.0 0.0 0.00 0.00 0.00 89 1017.8
20260902071505 22 355 0.0 0.0 0.00 0.00 0.00 89 1017.7
20260902071005 22 355 0.0 0.0 0.00 0.00 0.00 89 1017.7
20260902065006 22 355 0.0 0.0 0.00 0.00 0.00 89 1017.8
20260902064505 23 355 0.0 0.0 0.00 0.00 0.00 89 1017.8
20260902064005 23 355 0.0 1.6 0.00 0.00 0.00 89 1017.8
20260902063506 23 355 0.0 1.6 0.00 0.00 0.00 89 1017.8
20260902062506 23 355 0.0 0.0 0.00 0.00 0.00 88 1017.9
20260902062004 23 355 0.0 0.0 0.00 0.00 0.00 88 1017.9
20260902061005 23 355 0.0 1.6 0.00 0.00 0.00 88 1017.9
20260902060005 23 355 0.0 0.0 0.00 0.00 0.00 88 1017.9
20260902055005 23 355 0.0 0.0 0.00 0.00 0.00 88 1018.0
20260902054006 23 355 0.0 0.0 0.00 0.00 0.00 88 1018.1
20260902053504 23 355 0.0 0.0 0.00 0.00 0.00 88 1018.1
20260902052504 23 355 0.0 1.6 0.00 0.00 0.00 88 1018.0
20260902051506 23 355 0.0 0.0 0.00 0.00 0.00 88 1018.0
20260902051006 23 355 0.0 0.0 0.00 0.00 0.00 88 1018.1
20260902050007 23 355 0.0 0.0 0.00 0.00 0.00 87 1018.2
20260902045505 23 355 0.0 1.6 0.00 0.00 0.00 87 1018.2
20260902045005 24 355 0.0 1.6 0.00 0.00 0.00 88 1018.2
20260902044505 24 355 0.0 1.6 0.00 0.00 0.00 87 1018.2
20260902044005 24 355 0.0 1.6 0.00 0.00 0.00 87 1018.3
20260902043505 24 355 0.0 0.0 0.00 0.00 0.00 87 1018.3
20260902043006 24 355 0.0 1.6 0.00 0.00 0.00 87 1018.3
20260902042505 24 355 0.0 0.0 0.00 0.00 0.00 87 1018.3
20260902041505 24 355 0.0 0.0 0.00 0.00 0.00 87 1018.2
20260902041005 24 355 0.0 0.0 0.00 0.00 0.00 87 1018.2
20260902040005 25 355 0.0 0.0 0.00 0.00 0.00 87 1018.3
20260902035505 25 355 0.0 0.0 0.00 0.00 0.00 86 1018.3
20260902035006 25 355 0.0 0.0 0.00 0.00 0.00 86 1018.3
20260902034505 25 355 0.0 0.0 0.00 0.00 0.00 86 1018.4
20260902034005 25 355 0.0 1.6 0.00 0.00 0.00 86 1018.4
20260902033005 25 355 0.0 1.6 0.00 0.00 0.00 86 1018.4
20260902032005 25 355 0.0 1.6 0.00 0.00 0.00 85 1018.5
20260902031006 25 355 0.0 1.6 0.00 0.00 0.00 85 1018.5
20260902030505 25 355 0.0 0.0 0.00 0.00 0.00 84 1018.5
20260902030006 25 355 0.0 0.0 0.00 0.00 0.00 84 1018.1
20260902025005 26 355 0.0 0.0 0.00 0.00 0.00 84 1018.1
20260902024505 26 355 0.0 0.0 0.00 0.00 0.00 84 1018.1
20260902024005 26 355 0.0 0.0 0.00 0.00 0.00 84 1018.1
20260902023505 26 355 0.0 0.0 0.00 0.00 0.00 84 1018.1
20260902023006 26 355 0.0 0.0 0.00 0.00 0.00 84 1018.1
20260902022505 26 355 0.0 0.0 0.00 0.00 0.00 83 1018.1
20260902022006 26 355 0.0 1.6 0.00 0.00 0.00 83 1017.9
20260902021505 26 355 0.0 1.6 0.00 0.00 0.00 83 1017.9
20260902021006 26 355 0.0 0.0 0.00 0.00 0.00 83 1017.9
20260902020505 26 355 0.0 0.0 0.00 0.00 0.00 83 1017.9
20260902020004 26 355 0.0 1.6 0.00 0.00 0.00 82 1017.8
20260902015506 27 355 0.0 1.6 0.00 0.00 0.00 82 1017.8
20260902014506 27 355 0.0 0.0 0.00 0.00 0.00 81 1017.8
20260902013505 27 355 0.0 0.0 0.00 0.00 0.00 81 1017.5
20260902012005 27 355 0.0 0.0 0.00 0.00 0.00 80 1017.4
20260902011504 28 355 0.0 0.0 0.00 0.00 0.00 79 1017.4
20260902011006 28 355 0.0 1.6 0.00 0.00 0.00 79 1017.4
20260902010505 28 355 0.0 0.0 0.00 0.00 0.00 79 1017.4
20260902010005 28 355 0.0 1.6 0.00 0.00 0.00 78 1017.1
20260902005505 28 355 0.0 1.6 0.00 0.00 0.00 78 1017.1
20260902005005 28 355 0.0 1.6 0.00 0.00 0.00 77 1017.1
20260902004505 29 355 0.0 1.6 0.00 0.00 0.00 76 1017.1
20260902004005 29 355 0.0 1.6 0.00 0.00 0.00 76 1017.4
20260902003005 30 355 0.0 0.0 0.00 0.00 0.00 75 1017.4
20260902002504 30 355 0.0 0.0 0.00 0.00 0.00 74 1017.4
20260902002005 30 355 0.0 0.0 0.00 0.00 0.00 74 1017.4
20260902001505 30 355 0.0 0.0 0.00 0.00 0.00 73 1017.4
20260902001005 31 355 0.0 0.0 0.00 0.00 0.00 72 1017.4
20260902000005 31 355 0.0 0.0 0.00 0.00 0.00 70 1017.4
20260901235505 31 355 0.0 0.0 0.00 0.00 0.00 69 1017.4
20260901235006 31 355 0.0 0.0 0.00 0.00 0.00 68 1017.4
20260901234005 32 355 0.0 0.0 0.00 0.00 0.00 66 1017.4
20260901233504 32 355 0.0 0.0 0.00 0.00 0.00 65 1017.4
20260901231505 32 355 0.0 0.0 0.00 0.00 0.00 59 1017.4
20260901230505 32 355 0.0 0.0 0.00 0.00 0.00 57 1017.4
20260901230005 32 355 0.0 1.6 0.00 0.00 0.00 56 1017.4
20260901225005 32 355 0.0 1.6 0.00 0.00 0.00 55 1017.4
20260901224005 33 355 0.0 3.2 0.00 0.00 0.00 54 1017.4
20260901223505 33 355 0.0 3.2 0.00 0.00 0.00 52 1017.4
20260901223006 33 355 0.0 3.2 0.00 0.00 0.00 52 1017.4
20260901222505 33 355 1.6 3.2 0.00 0.00 0.00 53 1017.4
20260901222006 33 116 1.6 3.2 0.00 0.00 0.00 52 1017.3
20260901221505 33 116 1.6 3.2 0.00 0.00 0.00 53 1017.3
20260901221005 33 116 0.0 3.2 0.00 0.00 0.00 52 1017.3
20260901220505 33 67 0.0 1.6 0.00 0.00 0.00 52 1017.3
20260901220005 33 67 0.0 3.2 0.00 0.00 0.00 51 1017.3
20260901215505 33 12 1.6 3.2 0.00 0.00 0.00 51 1017.3
20260901215005 33 130 0.0 3.2 0.00 0.00 0.00 53 1017.3
20260901213505 33 355 3.2 4.8 0.00 0.00 0.00 51 1017.4
20260901213005 33 95 1.6 3.2 0.00 0.00 0.00 51 1017.4
20260901212505 33 341 1.6 4.8 0.00 0.00 0.00 51 1017.4
20260901212006 33 345 3.2 4.8 0.00 0.00 0.00 51 1017.4
20260901211505 33 11 3.2 4.8 0.00 0.00 0.00 50 1017.4
20260901211005 33 15 3.2 4.8 0.00 0.00 0.00 50 1017.4
20260901210505 33 344 3.2 8.0 0.00 0.00 0.00 50 1017.4
20260901210004 33 336 3.2 4.8 0.00 0.00 0.00 49 1017.6
20260901205504 33 327 1.6 4.8 0.00 0.00 0.00 49 1017.6
20260901205005 33 1 1.6 4.8 0.00 0.00 0.00 50 1017.6
20260901204505 33 5 1.6 4.8 0.00 0.00 0.00 50 1017.6
20260901204005 33 15 0.0 1.6 0.00 0.00 0.00 50 1017.9
20260901203506 33 13 1.6 4.8 0.00 0.00 0.00 49 1017.9
20260901203006 33 348 3.2 4.8 0.00 0.00 0.00 48 1017.9
20260901202504 34 87 0.0 3.2 0.00 0.00 0.00 49 1017.9
20260901202005 33 225 0.0 3.2 0.00 0.00 0.00 51 1017.9
20260901201006 33 33 3.2 4.8 0.00 0.00 0.00 49 1018.1
20260901200505 33 302 1.6 3.2 0.00 0.00 0.00 49 1018.1
20260901195505 34 3 3.2 4.8 0.00 0.00 0.00 49 1018.6
20260901195005 33 32 1.6 4.8 0.00 0.00 0.00 53 1018.6
20260901194506 34 23 1.6 3.2 0.00 0.00 0.00 50 1018.6
20260901194005 35 113 3.2 4.8 0.00 0.00 0.00 48 1018.6
20260901193505 34 156 1.6 8.0 0.00 0.00 0.00 48 1018.6
20260901193006 34 125 0.0 4.8 0.00 0.00 0.00 49 1018.6
20260901192505 34 100 0.0 4.8 0.00 0.00 0.00 48 1018.6
20260901192005 34 124 3.2 4.8 0.00 0.00 0.00 49 1018.6
20260901191005 33 19 3.2 9.7 0.00 0.00 0.00 52 1019.0
20260901190506 33 14 3.2 4.8 0.00 0.00 0.00 49 1019.0
20260901190005 33 87 3.2 8.0 0.00 0.00 0.00 51 1019.0
20260901185506 33 248 1.6 3.2 0.00 0.00 0.00 52 1019.0
20260901185005 33 309 1.6 3.2 0.00 0.00 0.00 54 1019.0
20260901184504 33 65 1.6 3.2 0.00 0.00 0.00 53 1019.0
20260901184005 33 15 3.2 4.8 0.00 0.00 0.00 54 1019.0
20260901183006 33 72 4.8 9.7 0.00 0.00 0.00 52 1019.3
20260901182504 33 13 1.6 4.8 0.00 0.00 0.00 54 1019.3
20260901181505 33 9 1.6 3.2 0.00 0.00 0.00 53 1019.3
20260901181004 33 8 3.2 4.8 0.00 0.00 0.00 52 1019.3
20260901180505 33 44 1.6 4.8 0.00 0.00 0.00 53 1019.3